"read_dt","SO2 (ppb)","flags","PMT voltage (V)","lamp voltage (V)","lamp intensity (Hz)","internal temp (C)","react chamber temp (C)","sample flow (l/min)","pres (mmHg)","SO2 bkg (ppb)","SO2 coefficient"
2016-05-03 00:00:00,1949E-3,5C000400,-0724,0834,12054,029.4,045.5,0.252,751.8,01.17,0.508
2016-05-03 00:01:00,1941E-3,5C000400,-0724,0834,12259,029.5,045.5,0.252,751.8,01.17,0.508
2016-05-03 00:02:00,1943E-3,5C000400,-0724,0834,12129,029.4,045.5,0.252,751.8,01.17,0.508
2016-05-03 00:03:00,1890E-3,5C000400,-0724,0835,12145,029.5,045.5,0.252,751.8,01.17,0.508
2016-05-03 00:04:00,1936E-3,5C000400,-0724,0834,12167,029.4,045.5,0.252,751.8,01.17,0.508
2016-05-03 00:05:00,2065E-3,5C000400,-0724,0834,12184,029.4,045.5,0.252,751.8,01.17,0.508
2016-05-03 00:06:00,1944E-3,5C000400,-0724,0834,12171,029.4,045.5,0.252,751.8,01.17,0.508
2016-05-03 00:07:00,2001E-3,5C000400,-0724,0834,12200,029.5,045.5,0.252,751.8,01.17,0.508
2016-05-03 00:08:00,1973E-3,5C000400,-0724,0834,12239,029.4,045.5,0.252,751.8,01.17,0.508
2016-05-03 00:09:00,2061E-3,5C000400,-0724,0835,12188,029.4,045.5,0.252,751.8,01.17,0.508
2016-05-03 00:10:00,1950E-3,5C000400,-0724,0834,12173,029.5,045.5,0.252,751.9,01.17,0.508
2016-05-03 00:11:00,2026E-3,5C000400,-0724,0835,12141,029.5,045.5,0.252,751.9,01.17,0.508
2016-05-03 00:12:00,1974E-3,5C000400,-0724,0834,12126,029.4,045.5,0.252,751.9,01.17,0.508
2016-05-03 00:13:00,2055E-3,5C000400,-0724,0834,12225,029.4,045.5,0.252,751.9,01.17,0.508
2016-05-03 00:14:00,2055E-3,5C000400,-0724,0834,12215,029.5,045.5,0.252,751.9,01.17,0.508
2016-05-03 00:15:00,1944E-3,5C000400,-0724,0835,12115,029.4,045.5,0.252,751.9,01.17,0.508
2016-05-03 00:16:00,2032E-3,5C000400,-0724,0834,12051,029.4,045.5,0.253,751.9,01.17,0.508
2016-05-03 00:17:00,2101E-3,5C000400,-0724,0834,12096,029.4,045.5,0.252,751.9,01.17,0.508
2016-05-03 00:18:00,1937E-3,5C000400,-0724,0835,12138,029.5,045.5,0.252,752.0,01.17,0.508
2016-05-03 00:19:00,1965E-3,5C000400,-0724,0834,11953,029.4,045.5,0.252,752.0,01.17,0.508
2016-05-03 00:20:00,2009E-3,5C000400,-0724,0834,12110,029.4,045.5,0.252,752.0,01.17,0.508
2016-05-03 00:21:00,1929E-3,5C000400,-0724,0833,12152,029.4,045.5,0.252,752.0,01.17,0.508
2016-05-03 00:22:00,2146E-3,5C000400,-0724,0834,12152,029.4,045.5,0.252,752.0,01.17,0.508
2016-05-03 00:23:00,2104E-3,5C000400,-0724,0833,12044,029.4,045.5,0.252,752.0,01.17,0.508
2016-05-03 00:24:00,1921E-3,5C000400,-0724,0834,12235,029.4,045.5,0.252,752.0,01.17,0.508
2016-05-03 00:25:00,2013E-3,5C000400,-0724,0834,12091,029.4,045.5,0.252,752.0,01.17,0.508
2016-05-03 00:26:00,1863E-3,5C000400,-0724,0834,12241,029.4,045.5,0.252,752.0,01.17,0.508
2016-05-03 00:27:00,1956E-3,5C000400,-0724,0835,12162,029.4,045.5,0.252,752.1,01.17,0.508
2016-05-03 00:28:00,2070E-3,5C000400,-0724,0834,12210,029.4,045.5,0.252,752.1,01.17,0.508
2016-05-03 00:29:00,1996E-3,5C000400,-0724,0834,12136,029.4,045.5,0.252,752.1,01.17,0.508
2016-05-03 00:30:00,2057E-3,5C000400,-0724,0834,11999,029.4,045.5,0.252,752.1,01.17,0.508
2016-05-03 00:31:00,1988E-3,5C000400,-0724,0834,12058,029.4,045.5,0.252,752.1,01.17,0.508
2016-05-03 00:32:00,1996E-3,5C000400,-0724,0834,12022,029.4,045.5,0.252,752.1,01.17,0.508
2016-05-03 00:33:00,1920E-3,5C000400,-0724,0834,12203,029.3,045.5,0.252,752.1,01.17,0.508
2016-05-03 00:34:00,1987E-3,5C000400,-0724,0834,12108,029.3,045.5,0.252,752.1,01.17,0.508
2016-05-03 00:35:00,1890E-3,5C000400,-0724,0834,12048,029.3,045.5,0.252,752.1,01.17,0.508
2016-05-03 00:36:00,1831E-3,5C000400,-0724,0834,12042,029.4,045.5,0.252,752.1,01.17,0.508
2016-05-03 00:37:00,1883E-3,5C000400,-0724,0834,12076,029.3,045.5,0.252,752.1,01.17,0.508
2016-05-03 00:38:00,2130E-3,5C000400,-0724,0834,12228,029.3,045.5,0.252,752.1,01.17,0.508
2016-05-03 00:39:00,2009E-3,5C000400,-0724,0834,12271,029.3,045.5,0.252,752.1,01.17,0.508
2016-05-03 00:40:00,1972E-3,5C000400,-0724,0834,12282,029.3,045.5,0.252,752.1,01.17,0.508
2016-05-03 00:41:00,2025E-3,5C000400,-0724,0834,12250,029.3,045.5,0.252,752.1,01.17,0.508
2016-05-03 00:42:00,2035E-3,5C000400,-0724,0834,12084,029.4,045.5,0.253,752.0,01.17,0.508
2016-05-03 00:43:00,1835E-3,5C000400,-0724,0834,12164,029.3,045.5,0.253,752.0,01.17,0.508
2016-05-03 00:44:00,1972E-3,5C000400,-0724,0834,12270,029.3,045.5,0.253,752.0,01.17,0.508
2016-05-03 00:45:00,2010E-3,5C000400,-0724,0833,12044,029.3,045.5,0.253,752.0,01.17,0.508
2016-05-03 00:46:00,2080E-3,5C000400,-0724,0834,12236,029.3,045.5,0.253,752.0,01.17,0.508
2016-05-03 00:47:00,1930E-3,5C000400,-0724,0834,12237,029.4,045.5,0.253,752.0,01.17,0.508
2016-05-03 00:48:00,1906E-3,5C000400,-0724,0834,12083,029.3,045.5,0.253,752.0,01.17,0.508
2016-05-03 00:49:00,1958E-3,5C000400,-0724,0834,12188,029.3,045.5,0.253,752.0,01.17,0.508
2016-05-03 00:50:00,1981E-3,5C000400,-0724,0834,12235,029.4,045.5,0.252,752.0,01.17,0.508
2016-05-03 00:51:00,2031E-3,5C000400,-0724,0834,12158,029.3,045.5,0.252,752.0,01.17,0.508
2016-05-03 00:52:00,1978E-3,5C000400,-0724,0834,12151,029.3,045.5,0.253,752.0,01.17,0.508
2016-05-03 00:53:00,1912E-3,5C000400,-0724,0834,12157,029.3,045.5,0.252,752.0,01.17,0.508
2016-05-03 00:54:00,2051E-3,5C000400,-0724,0835,12129,029.3,045.5,0.252,752.0,01.17,0.508
2016-05-03 00:55:00,1986E-3,5C000400,-0724,0834,12219,029.3,045.5,0.252,752.0,01.17,0.508
2016-05-03 00:56:00,1934E-3,5C000400,-0724,0833,12070,029.3,045.5,0.252,752.0,01.17,0.508
2016-05-03 00:57:00,1964E-3,5C000400,-0724,0834,12174,029.3,045.5,0.252,752.0,01.17,0.508
2016-05-03 00:58:00,2056E-3,5C000400,-0724,0833,12244,029.3,045.5,0.252,752.0,01.17,0.508
2016-05-03 00:59:00,1978E-3,5C000400,-0724,0835,12006,029.3,045.5,0.252,752.0,01.17,0.508
2016-05-03 01:00:00,1976E-3,5C000400,-0724,0834,12149,029.2,045.5,0.252,752.0,01.17,0.508
2016-05-03 01:01:00,1848E-3,5C000400,-0724,0834,12061,029.2,045.5,0.252,752.0,01.17,0.508
2016-05-03 01:02:00,2038E-3,5C000400,-0724,0834,12067,029.2,045.5,0.252,752.0,01.17,0.508
2016-05-03 01:03:00,1964E-3,5C000400,-0724,0834,12184,029.2,045.5,0.252,752.0,01.17,0.508
2016-05-03 01:04:00,1882E-3,5C000400,-0724,0834,12142,029.2,045.5,0.252,752.1,01.17,0.508
2016-05-03 01:05:00,1894E-3,5C000400,-0724,0833,12226,029.2,045.5,0.253,752.0,01.17,0.508
2016-05-03 01:06:00,1957E-3,5C000400,-0724,0834,12113,029.2,045.4,0.253,752.1,01.17,0.508
2016-05-03 01:07:00,1980E-3,5C000400,-0724,0834,12102,029.2,045.5,0.253,752.0,01.17,0.508
2016-05-03 01:08:00,1925E-3,5C000400,-0724,0834,12287,029.1,045.5,0.253,752.0,01.17,0.508
2016-05-03 01:09:00,2068E-3,5C000400,-0724,0834,12135,029.2,045.5,0.253,752.0,01.17,0.508
2016-05-03 01:10:00,1878E-3,5C000400,-0724,0834,12177,029.2,045.5,0.253,752.1,01.17,0.508
2016-05-03 01:11:00,2071E-3,5C000400,-0724,0833,12120,029.1,045.5,0.253,752.1,01.17,0.508
2016-05-03 01:12:00,2013E-3,5C000400,-0724,0833,12214,029.1,045.5,0.253,752.1,01.17,0.508
2016-05-03 01:13:00,1859E-3,5C000400,-0724,0834,12206,029.1,045.5,0.253,752.1,01.17,0.508
2016-05-03 01:14:00,1921E-3,5C000400,-0724,0833,12147,029.1,045.5,0.253,752.1,01.17,0.508
2016-05-03 01:15:00,1883E-3,5C000400,-0724,0834,12252,029.1,045.5,0.253,752.1,01.17,0.508
2016-05-03 01:16:00,2076E-3,5C000400,-0724,0834,12262,029.1,045.5,0.253,752.1,01.17,0.508
2016-05-03 01:17:00,1935E-3,5C000400,-0724,0834,12124,029.1,045.5,0.253,752.0,01.17,0.508
2016-05-03 01:18:00,1975E-3,5C000400,-0724,0834,12076,029.1,045.5,0.252,752.0,01.17,0.508
2016-05-03 01:19:00,2001E-3,5C000400,-0724,0833,12042,029.1,045.5,0.252,752.0,01.17,0.508
2016-05-03 01:20:00,1906E-3,5C000400,-0724,0835,12198,029.1,045.5,0.252,752.0,01.17,0.508
2016-05-03 01:21:00,1978E-3,5C000400,-0724,0834,12263,029.1,045.4,0.252,752.0,01.17,0.508
2016-05-03 01:22:00,1961E-3,5C000400,-0724,0834,12124,029.1,045.5,0.252,752.0,01.17,0.508
2016-05-03 01:23:00,1921E-3,5C000400,-0724,0835,12255,029.1,045.5,0.252,752.1,01.17,0.508
2016-05-03 01:24:00,1922E-3,5C000400,-0724,0834,12213,029.1,045.5,0.253,752.1,01.17,0.508
2016-05-03 01:25:00,1928E-3,5C000400,-0724,0835,12255,029.1,045.5,0.253,752.1,01.17,0.508
2016-05-03 01:26:00,1935E-3,5C000400,-0724,0835,12107,029.1,045.5,0.253,752.1,01.17,0.508
2016-05-03 01:27:00,1950E-3,5C000400,-0724,0834,12128,029.1,045.5,0.253,752.1,01.17,0.508
2016-05-03 01:28:00,1961E-3,5C000400,-0724,0834,12232,029.1,045.5,0.253,752.1,01.17,0.508
2016-05-03 01:29:00,1983E-3,5C000400,-0724,0834,12173,029.1,045.5,0.253,752.1,01.17,0.508
2016-05-03 01:30:00,2022E-3,5C000400,-0724,0834,12197,029.1,045.5,0.253,752.1,01.17,0.508
2016-05-03 01:31:00,1925E-3,5C000400,-0724,0834,12173,029.1,045.5,0.253,752.1,01.17,0.508
2016-05-03 01:32:00,1992E-3,5C000400,-0724,0834,12183,029.1,045.5,0.253,752.1,01.17,0.508
2016-05-03 01:33:00,2004E-3,5C000400,-0724,0834,12141,029.1,045.5,0.253,752.1,01.17,0.508
2016-05-03 01:34:00,1940E-3,5C000400,-0724,0835,12245,029.1,045.5,0.253,752.0,01.17,0.508
2016-05-03 01:35:00,2029E-3,5C000400,-0724,0834,12064,029.1,045.5,0.252,752.1,01.17,0.508
2016-05-03 01:36:00,1973E-3,5C000400,-0724,0834,12245,029.1,045.5,0.253,752.0,01.17,0.508
2016-05-03 01:37:00,1855E-3,5C000400,-0724,0834,12179,029.1,045.5,0.253,752.1,01.17,0.508
2016-05-03 01:38:00,1947E-3,5C000400,-0724,0833,12092,029.1,045.5,0.253,752.0,01.17,0.508
2016-05-03 01:39:00,1849E-3,5C000400,-0724,0834,12256,029.1,045.5,0.253,752.0,01.17,0.508
2016-05-03 01:40:00,1952E-3,5C000400,-0724,0835,12187,029.0,045.5,0.252,752.0,01.17,0.508
2016-05-03 01:41:00,1844E-3,5C000400,-0724,0835,11956,029.0,045.5,0.253,752.0,01.17,0.508
2016-05-03 01:42:00,1913E-3,5C000400,-0724,0834,12236,029.0,045.5,0.253,752.0,01.17,0.508
2016-05-03 01:43:00,1911E-3,5C000400,-0724,0834,12058,029.0,045.5,0.253,752.0,01.17,0.508
2016-05-03 01:44:00,1929E-3,5C000400,-0724,0834,12249,029.0,045.5,0.253,752.0,01.17,0.508
2016-05-03 01:45:00,1936E-3,5C000400,-0724,0834,12181,029.0,045.5,0.253,752.0,01.17,0.508
2016-05-03 01:46:00,1998E-3,5C000400,-0724,0834,12135,029.0,045.5,0.253,752.0,01.17,0.508
2016-05-03 01:47:00,1969E-3,5C000400,-0724,0834,12099,029.0,045.5,0.253,752.0,01.17,0.508
2016-05-03 01:48:00,2082E-3,5C000400,-0724,0833,12161,029.0,045.5,0.253,752.0,01.17,0.508
2016-05-03 01:49:00,2068E-3,5C000400,-0724,0834,12124,029.0,045.5,0.253,752.1,01.17,0.508
2016-05-03 01:50:00,1927E-3,5C000400,-0724,0834,12053,029.0,045.5,0.253,752.1,01.17,0.508
2016-05-03 01:51:00,1801E-3,5C000400,-0724,0834,12203,029.0,045.5,0.253,752.1,01.17,0.508
2016-05-03 01:52:00,1921E-3,5C000400,-0724,0834,12145,029.0,045.5,0.253,752.1,01.17,0.508
2016-05-03 01:53:00,1950E-3,5C000400,-0724,0834,12212,029.0,045.5,0.253,752.1,01.17,0.508
2016-05-03 01:54:00,1960E-3,5C000400,-0724,0833,12173,029.0,045.5,0.253,752.1,01.17,0.508
2016-05-03 01:55:00,1868E-3,5C000400,-0724,0833,12024,029.0,045.5,0.253,752.1,01.17,0.508
2016-05-03 01:56:00,1835E-3,5C000400,-0724,0834,12233,029.0,045.5,0.253,752.1,01.17,0.508
2016-05-03 01:57:00,2039E-3,5C000400,-0724,0834,12128,029.0,045.5,0.253,752.1,01.17,0.508
2016-05-03 01:58:00,1921E-3,5C000400,-0724,0833,12181,029.0,045.5,0.253,752.1,01.17,0.508
2016-05-03 01:59:00,1980E-3,5C000400,-0724,0833,12231,029.0,045.5,0.253,752.1,01.17,0.508
2016-05-03 02:00:00,1945E-3,5C000400,-0724,0834,12215,029.0,045.5,0.253,752.1,01.17,0.508
2016-05-03 02:01:00,1984E-3,5C000400,-0724,0833,12130,029.0,045.5,0.253,752.1,01.17,0.508
2016-05-03 02:02:00,1891E-3,5C000400,-0724,0833,12096,029.0,045.5,0.253,752.1,01.17,0.508
2016-05-03 02:03:00,1882E-3,5C000400,-0724,0834,12156,029.0,045.5,0.253,752.1,01.17,0.508
2016-05-03 02:04:00,1951E-3,5C000400,-0724,0834,12390,029.0,045.5,0.253,752.1,01.17,0.508
2016-05-03 02:05:00,2026E-3,5C000400,-0724,0834,12084,029.0,045.5,0.253,752.1,01.17,0.508
2016-05-03 02:06:00,1957E-3,5C000400,-0724,0834,12128,029.0,045.5,0.253,752.1,01.17,0.508
2016-05-03 02:07:00,1986E-3,5C000400,-0724,0834,11989,029.0,045.5,0.253,752.1,01.17,0.508
2016-05-03 02:08:00,1963E-3,5C000400,-0724,0833,12147,029.0,045.5,0.253,752.1,01.17,0.508
2016-05-03 02:09:00,1934E-3,5C000400,-0724,0833,12200,029.0,045.5,0.253,752.1,01.17,0.508
2016-05-03 02:10:00,2092E-3,5C000400,-0724,0834,12094,029.0,045.5,0.253,752.1,01.17,0.508
2016-05-03 02:11:00,1932E-3,5C000400,-0724,0834,12213,029.0,045.5,0.253,752.1,01.17,0.508
2016-05-03 02:12:00,2016E-3,5C000400,-0724,0833,12221,029.0,045.5,0.253,752.1,01.17,0.508
2016-05-03 02:13:00,1853E-3,5C000400,-0724,0833,12075,029.0,045.5,0.253,752.1,01.17,0.508
2016-05-03 02:14:00,1804E-3,5C000400,-0724,0834,12146,028.9,045.5,0.253,752.1,01.17,0.508
2016-05-03 02:15:00,1876E-3,5C000400,-0724,0833,12073,028.9,045.5,0.253,752.1,01.17,0.508
2016-05-03 02:16:00,2008E-3,5C000400,-0724,0834,12233,028.9,045.5,0.253,752.1,01.17,0.508
2016-05-03 02:17:00,1920E-3,5C000400,-0724,0834,12201,028.9,045.5,0.253,752.1,01.17,0.508
2016-05-03 02:18:00,1896E-3,5C000400,-0724,0834,12172,029.0,045.5,0.253,752.1,01.17,0.508
2016-05-03 02:19:00,1951E-3,5C000400,-0724,0834,12081,029.0,045.5,0.253,752.1,01.17,0.508
2016-05-03 02:20:00,1925E-3,5C000400,-0724,0834,12096,028.9,045.5,0.253,752.1,01.17,0.508
2016-05-03 02:21:00,1946E-3,5C000400,-0724,0834,12222,028.9,045.5,0.253,752.1,01.17,0.508
2016-05-03 02:22:00,1953E-3,5C000400,-0724,0834,12087,028.9,045.5,0.253,752.1,01.17,0.508
2016-05-03 02:23:00,1985E-3,5C000400,-0724,0834,12091,029.0,045.5,0.254,752.2,01.17,0.508
2016-05-03 02:24:00,1931E-3,5C000400,-0724,0833,12241,028.9,045.5,0.253,752.2,01.17,0.508
2016-05-03 02:25:00,2027E-3,5C000400,-0724,0834,12132,028.9,045.5,0.253,752.1,01.17,0.508
2016-05-03 02:26:00,1918E-3,5C000400,-0724,0834,12006,028.9,045.5,0.253,752.1,01.17,0.508
2016-05-03 02:27:00,2042E-3,5C000400,-0724,0834,12139,028.9,045.5,0.253,752.1,01.17,0.508
2016-05-03 02:28:00,1991E-3,5C000400,-0724,0833,12076,028.9,045.5,0.253,752.2,01.17,0.508
2016-05-03 02:29:00,2095E-3,5C000400,-0724,0834,12244,028.9,045.5,0.253,752.2,01.17,0.508
2016-05-03 02:30:00,1813E-3,5C000400,-0724,0834,12098,028.9,045.5,0.253,752.2,01.17,0.508
2016-05-03 02:31:00,2082E-3,5C000400,-0724,0834,11982,028.9,045.5,0.253,752.2,01.17,0.508
2016-05-03 02:32:00,1942E-3,5C000400,-0724,0834,12047,028.9,045.5,0.253,752.2,01.17,0.508
2016-05-03 02:33:00,2065E-3,5C000400,-0724,0834,12180,028.9,045.5,0.253,752.3,01.17,0.508
2016-05-03 02:34:00,1978E-3,5C000400,-0724,0834,12056,028.9,045.5,0.253,752.3,01.17,0.508
2016-05-03 02:35:00,1982E-3,5C000400,-0724,0834,12298,028.9,045.5,0.253,752.2,01.17,0.508
2016-05-03 02:36:00,1923E-3,5C000400,-0724,0834,12023,028.9,045.5,0.253,752.3,01.17,0.508
2016-05-03 02:37:00,1921E-3,5C000400,-0724,0834,12085,028.9,045.5,0.253,752.3,01.17,0.508
2016-05-03 02:38:00,1982E-3,5C000400,-0724,0834,12305,028.9,045.5,0.253,752.3,01.17,0.508
2016-05-03 02:39:00,2022E-3,5C000400,-0724,0833,12165,028.9,045.5,0.253,752.3,01.17,0.508
2016-05-03 02:40:00,2035E-3,5C000400,-0724,0833,12186,028.9,045.5,0.253,752.3,01.17,0.508
2016-05-03 02:41:00,2060E-3,5C000400,-0724,0834,12267,028.9,045.5,0.253,752.3,01.17,0.508
2016-05-03 02:42:00,1953E-3,5C000400,-0724,0833,12064,028.9,045.5,0.253,752.3,01.17,0.508
2016-05-03 02:43:00,1917E-3,5C000400,-0724,0833,12211,028.9,045.5,0.253,752.3,01.17,0.508
2016-05-03 02:44:00,1864E-3,5C000400,-0724,0834,12124,028.9,045.5,0.253,752.3,01.17,0.508
2016-05-03 02:45:00,1880E-3,5C000400,-0724,0833,12132,028.9,045.5,0.253,752.3,01.17,0.508
2016-05-03 02:46:00,1935E-3,5C000400,-0724,0834,12065,028.9,045.5,0.253,752.3,01.17,0.508
2016-05-03 02:47:00,2133E-3,5C000400,-0724,0834,12141,028.9,045.4,0.254,752.3,01.17,0.508
2016-05-03 02:48:00,1935E-3,5C000400,-0724,0834,12173,028.9,045.5,0.254,752.3,01.17,0.508
2016-05-03 02:49:00,2001E-3,5C000400,-0724,0834,12139,028.9,045.4,0.253,752.3,01.17,0.508
2016-05-03 02:50:00,2006E-3,5C000400,-0724,0834,12083,028.9,045.4,0.253,752.3,01.17,0.508
2016-05-03 02:51:00,1850E-3,5C000400,-0724,0834,12159,028.9,045.5,0.253,752.3,01.17,0.508
2016-05-03 02:52:00,1955E-3,5C000400,-0724,0833,12019,028.9,045.5,0.253,752.3,01.17,0.508
2016-05-03 02:53:00,1918E-3,5C000400,-0724,0833,12084,028.9,045.5,0.253,752.3,01.17,0.508
2016-05-03 02:54:00,2046E-3,5C000400,-0724,0834,12140,028.9,045.5,0.253,752.3,01.17,0.508
2016-05-03 02:55:00,1814E-3,5C000400,-0724,0834,12219,028.9,045.5,0.253,752.3,01.17,0.508
2016-05-03 02:56:00,1958E-3,5C000400,-0724,0834,12103,028.9,045.5,0.253,752.3,01.17,0.508
2016-05-03 02:57:00,1910E-3,5C000400,-0724,0834,12124,028.8,045.4,0.253,752.3,01.17,0.508
2016-05-03 02:58:00,1898E-3,5C000400,-0724,0833,11983,028.8,045.5,0.253,752.3,01.17,0.508
2016-05-03 02:59:00,1915E-3,5C000400,-0724,0834,12209,028.9,045.5,0.253,752.3,01.17,0.508
2016-05-03 03:00:00,1968E-3,5C000400,-0724,0834,12054,028.9,045.5,0.253,752.3,01.17,0.508
2016-05-03 03:01:00,2032E-3,5C000400,-0724,0834,12111,028.8,045.5,0.253,752.3,01.17,0.508
2016-05-03 03:02:00,2045E-3,5C000400,-0724,0833,12107,028.8,045.5,0.254,752.3,01.17,0.508
2016-05-03 03:03:00,1972E-3,5C000400,-0724,0834,12272,028.9,045.5,0.254,752.3,01.17,0.508
2016-05-03 03:04:00,2041E-3,5C000400,-0724,0834,12284,028.8,045.5,0.254,752.3,01.17,0.508
2016-05-03 03:05:00,2067E-3,5C000400,-0724,0833,12025,028.8,045.5,0.254,752.3,01.17,0.508
2016-05-03 03:06:00,1919E-3,5C000400,-0724,0834,12225,028.8,045.5,0.254,752.3,01.17,0.508
2016-05-03 03:07:00,1954E-3,5C000400,-0724,0834,12216,028.8,045.5,0.253,752.3,01.17,0.508
2016-05-03 03:08:00,1965E-3,5C000400,-0724,0834,12080,028.8,045.5,0.254,752.3,01.17,0.508
2016-05-03 03:09:00,1950E-3,5C000400,-0724,0834,12205,028.8,045.5,0.253,752.3,01.17,0.508
2016-05-03 03:10:00,1991E-3,5C000400,-0724,0834,12215,028.8,045.4,0.253,752.3,01.17,0.508
2016-05-03 03:11:00,2051E-3,5C000400,-0724,0834,12135,028.8,045.5,0.253,752.3,01.17,0.508
2016-05-03 03:12:00,1944E-3,5C000400,-0724,0834,12243,028.9,045.5,0.253,752.3,01.17,0.508
2016-05-03 03:13:00,1862E-3,5C000400,-0724,0833,12244,028.8,045.5,0.253,752.3,01.17,0.508
2016-05-03 03:14:00,1964E-3,5C000400,-0724,0834,12165,028.8,045.4,0.253,752.3,01.17,0.508
2016-05-03 03:15:00,1988E-3,5C000400,-0724,0834,12141,028.8,045.5,0.253,752.3,01.17,0.508
2016-05-03 03:16:00,1805E-3,5C000400,-0724,0835,12232,028.9,045.5,0.253,752.3,01.17,0.508
2016-05-03 03:17:00,1910E-3,5C000400,-0724,0833,12152,028.9,045.4,0.254,752.3,01.17,0.508
2016-05-03 03:18:00,2125E-3,5C000400,-0724,0834,12154,028.8,045.5,0.254,752.4,01.17,0.508
2016-05-03 03:19:00,1984E-3,5C000400,-0724,0834,12229,028.8,045.4,0.254,752.3,01.17,0.508
2016-05-03 03:20:00,1880E-3,5C000400,-0724,0833,12183,028.8,045.5,0.254,752.3,01.17,0.508
2016-05-03 03:21:00,1993E-3,5C000400,-0724,0833,12108,028.8,045.5,0.254,752.3,01.17,0.508
2016-05-03 03:22:00,1921E-3,5C000400,-0724,0834,12158,028.8,045.5,0.254,752.3,01.17,0.508
2016-05-03 03:23:00,1829E-3,5C000400,-0724,0833,12144,028.8,045.5,0.253,752.3,01.17,0.508
2016-05-03 03:24:00,2001E-3,5C000400,-0724,0834,12179,028.8,045.5,0.253,752.3,01.17,0.508
2016-05-03 03:25:00,1865E-3,5C000400,-0724,0834,12153,028.8,045.5,0.253,752.4,01.17,0.508
2016-05-03 03:26:00,2055E-3,5C000400,-0724,0834,12180,028.8,045.5,0.253,752.3,01.17,0.508
2016-05-03 03:27:00,1956E-3,5C000400,-0724,0833,12148,028.8,045.4,0.253,752.3,01.17,0.508
2016-05-03 03:28:00,1906E-3,5C000400,-0724,0834,12159,028.8,045.5,0.253,752.3,01.17,0.508
2016-05-03 03:29:00,2003E-3,5C000400,-0724,0833,12157,028.8,045.5,0.253,752.3,01.17,0.508
2016-05-03 03:30:00,1832E-3,5C000400,-0724,0834,12179,028.8,045.5,0.253,752.3,01.17,0.508
2016-05-03 03:31:00,1974E-3,5C000400,-0724,0833,12175,028.8,045.5,0.253,752.3,01.17,0.508
2016-05-03 03:32:00,1951E-3,5C000400,-0724,0834,12047,028.8,045.5,0.254,752.3,01.17,0.508
2016-05-03 03:33:00,1959E-3,5C000400,-0724,0834,12020,028.8,045.5,0.254,752.3,01.17,0.508
2016-05-03 03:34:00,1968E-3,5C000400,-0724,0834,12204,028.8,045.4,0.254,752.4,01.17,0.508
2016-05-03 03:35:00,2011E-3,5C000400,-0724,0835,12220,028.8,045.5,0.254,752.4,01.17,0.508
2016-05-03 03:36:00,2014E-3,5C000400,-0724,0834,12195,028.8,045.5,0.254,752.4,01.17,0.508
2016-05-03 03:37:00,2113E-3,5C000400,-0724,0833,12121,028.8,045.5,0.254,752.4,01.17,0.508
2016-05-03 03:38:00,1931E-3,5C000400,-0724,0833,12200,028.8,045.4,0.254,752.4,01.17,0.508
2016-05-03 03:39:00,1872E-3,5C000400,-0724,0834,12194,028.8,045.5,0.253,752.4,01.17,0.508
2016-05-03 03:40:00,1987E-3,5C000400,-0724,0834,12141,028.8,045.5,0.254,752.3,01.17,0.508
2016-05-03 03:41:00,2005E-3,5C000400,-0724,0833,12254,028.8,045.5,0.253,752.3,01.17,0.508
2016-05-03 03:42:00,1867E-3,5C000400,-0724,0833,12214,028.8,045.5,0.253,752.4,01.17,0.508
2016-05-03 03:43:00,2000E-3,5C000400,-0724,0834,12246,028.8,045.5,0.253,752.4,01.17,0.508
2016-05-03 03:44:00,2055E-3,5C000400,-0724,0834,12337,028.8,045.4,0.254,752.4,01.17,0.508
2016-05-03 03:45:00,1832E-3,5C000400,-0724,0834,12188,028.8,045.4,0.254,752.4,01.17,0.508
2016-05-03 03:46:00,1947E-3,5C000400,-0724,0834,12111,028.8,045.5,0.253,752.4,01.17,0.508
2016-05-03 03:47:00,1985E-3,5C000400,-0724,0834,12127,028.8,045.5,0.253,752.4,01.17,0.508
2016-05-03 03:48:00,1923E-3,5C000400,-0724,0833,12211,028.8,045.5,0.253,752.4,01.17,0.508
2016-05-03 03:49:00,1934E-3,5C000400,-0724,0834,12206,028.8,045.5,0.253,752.4,01.17,0.508
2016-05-03 03:50:00,1907E-3,5C000400,-0724,0833,12249,028.8,045.5,0.253,752.5,01.17,0.508
2016-05-03 03:51:00,1973E-3,5C000400,-0724,0833,12173,028.8,045.5,0.254,752.5,01.17,0.508
2016-05-03 03:52:00,1933E-3,5C000400,-0724,0833,12130,028.8,045.5,0.254,752.4,01.17,0.508
2016-05-03 03:53:00,1893E-3,5C000400,-0724,0833,12127,028.8,045.4,0.254,752.4,01.17,0.508
2016-05-03 03:54:00,2045E-3,5C000400,-0724,0833,12182,028.8,045.5,0.254,752.4,01.17,0.508
2016-05-03 03:55:00,1948E-3,5C000400,-0724,0834,12178,028.7,045.5,0.254,752.4,01.17,0.508
2016-05-03 03:56:00,1935E-3,5C000400,-0724,0833,12162,028.7,045.5,0.254,752.5,01.17,0.508
2016-05-03 03:57:00,1940E-3,5C000400,-0724,0833,12091,028.7,045.4,0.254,752.5,01.17,0.508
2016-05-03 03:58:00,1896E-3,5C000400,-0724,0834,12188,028.8,045.5,0.254,752.5,01.17,0.508
2016-05-03 03:59:00,1990E-3,5C000400,-0724,0834,12167,028.7,045.5,0.253,752.5,01.17,0.508
2016-05-03 04:00:00,1888E-3,5C000400,-0724,0834,12003,028.8,045.5,0.253,752.5,01.17,0.508
2016-05-03 04:01:00,1956E-3,5C000400,-0724,0834,12157,028.7,045.5,0.253,752.5,01.17,0.508
2016-05-03 04:02:00,2024E-3,5C000400,-0724,0834,12004,028.8,045.5,0.253,752.5,01.17,0.508
2016-05-03 04:03:00,1873E-3,5C000400,-0724,0834,12240,028.8,045.5,0.253,752.5,01.17,0.508
2016-05-03 04:04:00,1886E-3,5C000400,-0724,0834,12179,028.8,045.5,0.253,752.5,01.17,0.508
2016-05-03 04:05:00,1885E-3,5C000400,-0724,0834,12253,028.8,045.4,0.254,752.5,01.17,0.508
2016-05-03 04:06:00,2011E-3,5C000400,-0724,0834,12119,028.7,045.5,0.254,752.5,01.17,0.508
2016-05-03 04:07:00,1983E-3,5C000400,-0724,0833,12174,028.8,045.5,0.254,752.5,01.17,0.508
2016-05-03 04:08:00,1908E-3,5C000400,-0724,0833,12221,028.8,045.4,0.254,752.5,01.17,0.508
2016-05-03 04:09:00,1973E-3,5C000400,-0724,0834,12072,028.8,045.5,0.254,752.5,01.17,0.508
2016-05-03 04:10:00,1976E-3,5C000400,-0724,0834,12270,028.8,045.5,0.254,752.5,01.17,0.508
2016-05-03 04:11:00,1979E-3,5C000400,-0724,0834,12034,028.8,045.5,0.253,752.5,01.17,0.508
2016-05-03 04:12:00,2015E-3,5C000400,-0724,0833,12100,028.7,045.4,0.253,752.5,01.17,0.508
2016-05-03 04:13:00,1948E-3,5C000400,-0724,0834,12193,028.7,045.5,0.253,752.5,01.17,0.508
2016-05-03 04:14:00,1901E-3,5C000400,-0724,0833,12093,028.8,045.5,0.253,752.5,01.17,0.508
2016-05-03 04:15:00,1932E-3,5C000400,-0724,0834,12239,028.8,045.5,0.253,752.5,01.17,0.508
2016-05-03 04:16:00,2044E-3,5C000400,-0724,0834,12071,028.8,045.5,0.253,752.5,01.17,0.508
2016-05-03 04:17:00,1916E-3,5C000400,-0724,0834,12063,028.7,045.5,0.254,752.5,01.17,0.508
2016-05-03 04:18:00,1866E-3,5C000400,-0724,0833,12084,028.7,045.5,0.254,752.5,01.17,0.508
2016-05-03 04:19:00,1916E-3,5C000400,-0724,0835,12107,028.7,045.5,0.254,752.5,01.17,0.508
2016-05-03 04:20:00,1874E-3,5C000400,-0724,0834,12268,028.8,045.5,0.254,752.5,01.17,0.508